Total_Precipitation_Accumulation
0.27 0.34 0.35 0.32 0.32 0.34 0.37 0.42 0.55 0.63 0.81 0.96 0.95 1.00 1.15 1.04 0.89 0.84 0.74 0.75 0.78 0.74 0.66 0.64 0.66 0.76 0.95 1.11 1.25 1.38 1.62 1.77 1.87 1.92 1.92 1.95 1.96 2.04 2.04 1.94 1.90 2.08 2.07 2.02
0.34 0.36 0.39 0.36 0.36 0.32 0.31 0.29 0.34 0.53 0.78 0.78 0.76 0.82 0.98 0.99 1.04 1.02 0.91 0.75 0.69 0.70 0.71 0.71 0.66 0.68 0.75 0.92 1.11 1.28 1.50 1.65 1.71 1.84 1.95 1.94 1.89 1.93 1.93 1.96 2.01 2.04 1.98 1.99
0.46 0.49 0.56 0.58 0.45 0.44 0.42 0.38 0.42 0.66 0.80 0.67 0.68 0.74 0.77 0.83 0.97 0.96 0.92 0.98 0.96 0.88 0.88 0.78 0.68 0.70 0.74 0.82 1.01 1.23 1.39 1.49 1.62 1.77 1.85 1.85 1.78 1.84 1.94 1.97 1.95 1.85 1.78 1.79
0.49 0.66 0.91 0.68 0.42 0.38 0.39 0.42 0.41 0.52 0.59 0.58 0.63 0.64 0.71 0.84 0.86 0.83 0.74 0.77 0.91 0.98 0.98 0.94 0.84 0.87 0.91 0.96 1.09 1.26 1.42 1.51 1.58 1.69 1.73 1.75 1.72 1.69 1.77 1.81 1.81 1.82 1.71 1.71
0.60 0.73 0.77 0.65 0.52 0.51 0.52 0.56 0.41 0.46 0.53 0.59 0.69 0.73 0.83 0.75 0.72 0.77 0.72 0.80 0.85 0.91 0.97 1.10 1.13 1.10 1.15 1.25 1.34 1.33 1.39 1.51 1.61 1.71 1.75 1.76 1.79 1.76 1.80 1.81 1.76 1.76 1.75 1.78
0.62 0.87 0.97 0.80 0.60 0.62 0.70 1.00 0.68 0.60 0.68 0.75 0.76 1.00 1.08 0.77 0.78 0.92 0.79 0.76 0.84 0.86 0.87 1.05 1.17 1.20 1.24 1.30 1.37 1.34 1.39 1.50 1.62 1.73 1.88 1.86 1.93 1.96 1.92 1.82 1.75 1.77 1.83 1.81
0.68 0.91 1.02 0.72 0.57 0.69 1.23 1.37 0.86 0.78 0.81 0.87 0.93 0.96 0.90 0.77 0.88 1.03 0.89 0.80 0.73 0.79 1.00 1.12 1.17 1.25 1.32 1.30 1.35 1.38 1.52 1.60 1.70 1.78 1.85 1.84 1.92 1.98 1.98 1.92 1.92 1.81 1.71 1.73
0.93 1.20 1.28 0.76 0.68 0.99 1.16 0.88 0.83 0.83 0.80 0.84 0.85 0.82 0.76 0.71 0.77 0.87 0.92 0.89 0.91 1.02 1.13 1.17 1.21 1.36 1.49 1.53 1.47 1.57 1.68 1.66 1.74 1.85 1.71 1.71 1.94 2.03 2.05 2.08 2.05 1.94 1.82 1.76
1.15 1.27 1.09 0.95 1.00 1.07 0.93 0.97 0.88 0.79 0.80 0.78 0.79 0.78 0.78 0.75 0.69 0.75 0.89 0.91 0.99 1.10 1.12 1.15 1.21 1.36 1.60 1.63 1.57 1.58 1.67 1.72 1.73 1.78 1.91 1.99 2.05 2.10 2.07 2.04 2.03 2.01 1.97 1.87
1.34 1.31 1.16 1.13 1.12 1.11 1.03 1.02 0.93 0.83 0.86 0.82 0.85 0.93 0.89 0.87 0.88 0.80 0.84 0.88 0.94 1.06 1.08 1.19 1.28 1.43 1.69 1.73 1.69 1.71 1.79 1.87 1.86 1.83 1.89 2.07 2.25 2.25 2.18 2.04 2.08 2.12 2.03 2.01
1.63 1.54 1.33 1.18 1.05 1.00 0.95 0.89 0.85 0.87 0.93 0.94 0.92 1.00 0.99 1.04 1.09 0.99 0.91 0.90 0.99 1.14 1.26 1.29 1.34 1.42 1.58 1.74 1.88 1.96 1.99 1.98 1.99 2.02 2.06 2.13 2.14 2.12 2.11 2.06 2.01 2.05 2.04 2.03
1.87 1.54 1.36 1.31 1.16 1.11 0.94 0.83 0.83 0.87 0.89 0.96 0.96 1.02 1.00 1.06 1.12 1.09 1.10 1.18 1.19 1.22 1.34 1.40 1.43 1.50 1.60 1.81 2.09 2.29 2.26 2.17 2.16 2.15 2.16 2.13 2.14 1.98 1.85 1.78 1.72 1.63 1.67 1.69
1.56 1.38 1.31 1.22 1.15 1.21 1.14 1.01 0.97 0.97 0.95 1.01 1.08 1.07 1.08 1.11 1.12 1.15 1.14 1.29 1.39 1.35 1.36 1.43 1.45 1.56 1.67 1.81 2.07 2.34 2.41 2.37 2.28 2.21 2.12 2.06 2.12 2.12 2.03 1.90 1.86 1.72 1.58 1.52
1.46 1.51 1.47 1.33 1.25 1.24 1.32 1.25 1.10 1.08 0.99 0.97 1.10 1.23 1.23 1.12 1.11 1.17 1.17 1.23 1.28 1.31 1.35 1.34 1.33 1.38 1.58 1.86 2.13 2.29 2.32 2.29 2.22 2.18 2.11 2.06 2.12 2.17 2.08 2.04 2.03 1.91 1.73 1.62
1.44 1.61 1.57 1.36 1.40 1.31 1.25 1.23 1.25 1.35 1.16 1.04 1.12 1.36 1.38 1.18 1.13 1.21 1.21 1.17 1.22 1.29 1.35 1.33 1.37 1.42 1.51 1.79 2.16 2.31 2.27 2.20 2.16 2.12 2.17 2.21 2.23 2.27 2.23 2.19 2.16 2.07 1.83 1.67
1.45 1.53 1.50 1.35 1.37 1.36 1.27 1.27 1.33 1.36 1.22 1.11 1.12 1.32 1.49 1.36 1.23 1.25 1.24 1.28 1.36 1.36 1.39 1.38 1.37 1.44 1.53 1.72 2.00 2.20 2.31 2.28 2.18 2.05 2.02 2.11 2.20 2.15 2.13 2.17 2.15 2.08 1.96 1.74
1.63 1.71 1.58 1.40 1.33 1.32 1.36 1.36 1.41 1.44 1.42 1.36 1.27 1.31 1.44 1.39 1.38 1.39 1.36 1.39 1.50 1.49 1.46 1.46 1.48 1.52 1.59 1.74 1.95 1.97 2.04 1.98 1.91 1.77 1.73 1.76 1.90 1.99 2.01 2.11 2.06 1.92 1.80 1.71
1.73 1.74 1.61 1.44 1.31 1.29 1.35 1.37 1.37 1.46 1.56 1.49 1.42 1.50 1.61 1.64 1.68 1.67 1.55 1.48 1.52 1.57 1.59 1.58 1.56 1.60 1.66 1.70 1.88 1.89 1.90 1.86 1.74 1.65 1.66 1.73 1.82 1.87 1.95 2.02 1.98 1.87 1.70 1.60
1.67 1.58 1.47 1.41 1.35 1.39 1.47 1.47 1.42 1.43 1.50 1.50 1.53 1.57 1.64 1.75 1.76 1.72 1.70 1.70 1.73 1.81 1.82 1.74 1.74 1.57 1.63 1.75 1.92 2.06 2.05 1.98 1.93 1.87 1.77 1.82 1.80 1.84 1.94 1.90 1.82 1.80 1.73 1.60
1.61 1.53 1.47 1.49 1.44 1.47 1.51 1.48 1.44 1.35 1.33 1.40 1.48 1.50 1.57 1.70 1.75 1.76 1.73 1.72 1.79 1.91 1.92 1.84 1.60 1.51 1.54 1.72 1.93 1.95 2.08 2.08 1.97 1.83 1.74 1.70 1.71 1.81 1.85 1.77 1.66 1.65 1.61 1.51
1.73 1.66 1.64 1.61 1.61 1.56 1.51 1.48 1.40 1.33 1.30 1.36 1.47 1.53 1.60 1.71 1.80 1.86 1.92 1.89 1.80 1.75 1.64 1.63 1.50 1.50 1.50 1.62 1.74 1.75 1.89 1.97 1.98 1.88 1.74 1.62 1.57 1.59 1.59 1.55 1.50 1.47 1.47 1.45
1.79 1.66 1.58 1.46 1.43 1.43 1.37 1.32 1.25 1.21 1.24 1.31 1.41 1.50 1.56 1.62 1.73 1.76 1.74 1.85 1.81 1.74 1.50 1.42 1.46 1.57 1.60 1.57 1.51 1.64 1.77 1.78 1.73 1.64 1.52 1.42 1.40 1.42 1.40 1.33 1.29 1.24 1.20 1.19
1.73 1.51 1.43 1.37 1.29 1.24 1.16 1.11 1.06 1.11 1.17 1.21 1.35 1.52 1.67 1.64 1.64 1.71 1.66 1.50 1.44 1.42 1.32 1.32 1.38 1.42 1.39 1.35 1.41 1.48 1.54 1.56 1.54 1.52 1.46 1.37 1.33 1.35 1.30 1.17 1.11 1.04 0.99 0.97
1.54 1.33 1.25 1.21 1.13 1.07 1.04 0.99 0.94 0.95 1.00 1.08 1.20 1.33 1.53 1.63 1.54 1.39 1.42 1.38 1.23 1.11 1.09 1.15 1.13 1.11 1.10 1.07 1.18 1.28 1.32 1.32 1.32 1.29 1.22 1.17 1.16 1.18 1.10 1.01 0.95 0.92 0.92 0.89
1.44 1.31 1.21 1.13 1.10 1.05 0.98 0.93 0.91 0.92 0.97 1.08 1.15 1.20 1.36 1.55 1.59 1.35 1.13 1.01 0.97 0.89 0.86 0.86 0.83 0.83 0.81 0.81 0.86 0.97 1.06 1.10 1.14 1.12 1.05 1.04 1.06 1.08 1.01 0.94 0.88 0.86 0.85 0.86
1.37 1.31 1.28 1.19 1.12 1.11 1.06 1.02 1.04 1.04 1.10 1.27 1.29 1.19 1.23 1.31 1.29 1.15 1.00 0.86 0.81 0.82 0.73 0.68 0.65 0.62 0.56 0.54 0.59 0.72 0.78 0.84 0.92 0.91 0.87 0.91 0.95 0.96 0.95 0.93 0.88 0.84 0.83 0.84
1.28 1.25 1.23 1.16 1.06 1.05 1.10 1.12 1.15 1.18 1.29 1.52 1.57 1.36 1.25 1.22 1.18 1.10 1.02 0.91 0.84 0.84 0.76 0.67 0.63 0.59 0.56 0.55 0.57 0.65 0.70 0.73 0.78 0.81 0.81 0.80 0.82 0.88 0.88 0.87 0.90 0.84 0.79 0.76